This is the latest recevied weather packets stored in our database for station/object M8FSI-13. If no packets are shown the sender has not sent any weather packets the latest 10 day(s).
| Time | Temp. | Humidity | Pressure | Rain* | Wind** | Luminosity | Snow |
|---|---|---|---|---|---|---|---|
| 1777676119 | 10° C | 88% | 1021.5 hPa | 0 mm | - | - | - |
| 1777672554 | 11.11° C | 88% | 1021.7 hPa | 0 mm | - | - | - |
| 1777668989 | 11.67° C | 86% | 1021.6 hPa | 0 mm | - | - | - |
| 1777664750 | 12.78° C | 83% | 1021.2 hPa | 0 mm | - | - | - |
| 1777661120 | 15° C | 74% | 1020.6 hPa | 0 mm | - | - | - |
| 1777646119 | 18.89° C | 69% | 1021.5 hPa | 0 mm | - | - | - |
| 1777633520 | 17.22° C | 61% | 1021.5 hPa | 0 mm | - | - | - |
| 1777626921 | 16.67° C | 51% | 1021.5 hPa | 0 mm | - | - | - |
| 1777625121 | 16.67° C | 51% | 1021.4 hPa | 0 mm | - | - | - |
| 1777624520 | 16.67° C | 51% | 1021.4 hPa | 0 mm | - | - | - |
| 1777623341 | 16.11° C | 51% | 1021.4 hPa | 0 mm | - | - | - |
| 1777612554 | 12.78° C | 56% | 1020.8 hPa | 0 mm | - | - | - |
| 1777611319 | 12.22° C | 58% | 1020.7 hPa | 0 mm | - | - | - |
| 1777607749 | 12.78° C | 59% | 1020.4 hPa | 0 mm | - | - | - |
| 1777606520 | 12.78° C | 59% | 1020.4 hPa | 0 mm | - | - | - |
| 1777605334 | 12.78° C | 59% | 1020.4 hPa | 0 mm | - | - | - |
| 1777603578 | 13.33° C | 59% | 1020.5 hPa | 0 mm | - | - | - |
| 1777599319 | 13.89° C | 54% | 1020.8 hPa | 0 mm | - | - | - |
| 1777586724 | 16.11° C | 44% | 1020.9 hPa | 0 mm | - | - | - |
| 1777584319 | 16.11° C | 41% | 1020.8 hPa | 0 mm | - | - | - |
| 1777583720 | 16.67° C | 40% | 1020.8 hPa | 0 mm | - | - | - |
| 1777581377 | 16.67° C | 39% | 1020.7 hPa | 0 mm | - | - | - |
| 1777580135 | 17.22° C | 40% | 1020.5 hPa | 0 mm | - | - | - |
| 1777577721 | 17.22° C | 40% | 1020.4 hPa | 0 mm | - | - | - |
| 1777575335 | 19.44° C | 33% | 1020.3 hPa | 0 mm | - | - | - |
* Rain latest hour (hover to see other rain measurements)
** Current wind speed in m/s (hover to see current wind gust speed)